TimeMDT,TemperatureF,Dew PointF,Humidity,Sea Level PressureIn,VisibilityMPH,Wind Direction,Wind SpeedMPH,Gust SpeedMPH,PrecipitationIn,Events,Conditions,WindDirDegrees,DateUTC
12:16 AM,25.9,24.8,96,29.85,5.0,NNE,13.8,23.0,N/A,Snow,Light Snow,30,2013-04-09 06:16:00
12:36 AM,25.3,23.9,94,29.84,10.0,NNE,12.7,18.4,N/A,Snow,Light Snow,30,2013-04-09 06:36:00
12:56 AM,24.8,23.2,94,29.85,10.0,NNE,13.8,19.6,N/A,,Overcast,20,2013-04-09 06:56:00
1:16 AM,24.8,23.4,94,29.87,10.0,NNE,8.1,-,N/A,,Overcast,30,2013-04-09 07:16:00
1:36 AM,24.8,22.1,89,29.88,10.0,NNE,16.1,-,N/A,,Overcast,30,2013-04-09 07:36:00
1:56 AM,23.4,20.7,89,29.92,10.0,NE,15.0,19.6,N/A,,Overcast,50,2013-04-09 07:56:00
2:16 AM,22.5,18.1,83,29.91,10.0,NNE,18.4,25.3,N/A,,Overcast,30,2013-04-09 08:16:00
2:36 AM,21.7,17.6,84,29.90,10.0,NNE,17.3,25.3,N/A,,Overcast,20,2013-04-09 08:36:00
2:56 AM,21.2,17.1,84,29.89,7.0,NNE,16.1,25.3,N/A,Snow,Light Snow,30,2013-04-09 08:56:00
3:16 AM,21.2,17.6,86,29.92,4.0,NNE,15.0,21.9,N/A,Snow,Light Snow,30,2013-04-09 09:16:00
3:36 AM,20.8,18.3,90,29.92,1.5,NNE,15.0,21.9,N/A,Snow,Light Snow,30,2013-04-09 09:36:00
3:56 AM,20.3,18.5,93,29.95,1.0,NNE,10.4,-,N/A,Snow,Light Snow,30,2013-04-09 09:56:00
4:16 AM,20.3,18.5,93,29.93,2.0,NNE,15.0,25.3,N/A,Snow,Light Snow,30,2013-04-09 10:16:00
4:36 AM,20.1,18.0,91,29.96,5.0,NNE,18.4,21.9,N/A,Snow,Light Snow,30,2013-04-09 10:36:00
4:56 AM,19.8,17.6,91,29.98,4.0,NNE,15.0,21.9,N/A,Snow,Light Snow,30,2013-04-09 10:56:00
5:16 AM,19.2,16.7,90,29.97,5.0,NNE,15.0,23.0,N/A,Snow,Light Snow,20,2013-04-09 11:16:00
5:36 AM,18.9,16.0,89,29.99,2.5,NNE,17.3,21.9,N/A,Snow,Light Snow,30,2013-04-09 11:36:00
5:56 AM,18.9,16.5,91,29.99,1.2,NNE,19.6,24.2,N/A,Snow,Light Snow,20,2013-04-09 11:56:00
6:16 AM,18.5,15.3,87,29.99,3.0,NNE,15.0,24.2,N/A,Snow,Light Snow,20,2013-04-09 12:16:00
6:36 AM,18.9,15.6,87,30.00,4.0,NNE,13.8,19.6,N/A,Snow,Light Snow,20,2013-04-09 12:36:00
6:56 AM,19.2,15.4,85,30.00,5.0,NNE,15.0,-,N/A,Snow,Light Snow,30,2013-04-09 12:56:00
7:16 AM,19.0,14.5,83,30.03,10.0,NE,15.0,20.7,N/A,Snow,Light Snow,40,2013-04-09 13:16:00
7:36 AM,19.6,14.5,81,30.05,10.0,NNE,10.4,-,N/A,Snow,Light Snow,30,2013-04-09 13:36:00
7:56 AM,19.9,12.7,74,30.05,7.0,NNE,11.5,-,N/A,Snow,Light Snow,20,2013-04-09 13:56:00
8:16 AM,19.9,12.6,73,30.02,7.0,NNE,15.0,-,N/A,Snow,Light Snow,20,2013-04-09 14:16:00
8:36 AM,20.1,13.1,74,30.04,3.0,NNE,13.8,18.4,N/A,Snow,Light Snow,20,2013-04-09 14:36:00
8:56 AM,19.9,14.2,78,30.05,2.0,NNE,13.8,20.7,N/A,Snow,Light Snow,30,2013-04-09 14:56:00
9:16 AM,19.0,14.7,83,30.06,1.8,NNE,17.3,-,N/A,Snow,Light Snow,30,2013-04-09 15:16:00
9:36 AM,18.9,14.9,85,30.06,2.0,NNE,17.3,20.7,N/A,Snow,Light Snow,30,2013-04-09 15:36:00
9:56 AM,18.5,15.3,87,30.06,1.0,NNE,12.7,-,N/A,Snow,Light Snow,20,2013-04-09 15:56:00
10:16 AM,18.0,14.9,88,30.08,1.5,NE,13.8,18.4,N/A,Snow,Light Snow,40,2013-04-09 16:16:00
10:36 AM,17.8,14.7,88,30.06,1.0,NNE,17.3,21.9,N/A,Snow,Light Snow,30,2013-04-09 16:36:00
10:56 AM,17.6,14.2,86,30.07,1.5,NNE,13.8,19.6,N/A,Snow,Light Snow,30,2013-04-09 16:56:00
11:16 AM,18.0,14.9,88,30.07,1.0,NNE,13.8,-,N/A,Snow,Light Snow,30,2013-04-09 17:16:00
11:36 AM,18.0,14.4,86,30.08,3.0,NNE,11.5,18.4,N/A,Snow,Light Snow,30,2013-04-09 17:36:00
11:56 AM,19.2,15.4,85,30.07,5.0,NE,12.7,-,N/A,Snow,Light Snow,40,2013-04-09 17:56:00
12:16 PM,20.1,15.8,83,30.07,5.0,NNE,12.7,19.6,N/A,Snow,Light Snow,20,2013-04-09 18:16:00
12:36 PM,19.4,15.1,83,30.07,5.0,NE,12.7,21.9,N/A,,Overcast,40,2013-04-09 18:36:00
12:56 PM,20.7,15.4,80,30.06,7.0,NE,15.0,20.7,N/A,,Overcast,40,2013-04-09 18:56:00
1:16 PM,21.4,14.9,76,30.05,7.0,NNE,17.3,23.0,N/A,Snow,Light Snow,20,2013-04-09 19:16:00
1:36 PM,20.8,14.7,77,30.06,5.0,NE,16.1,20.7,N/A,Snow,Light Snow,40,2013-04-09 19:36:00
1:56 PM,20.3,13.5,75,30.06,5.0,NE,17.3,20.7,N/A,Snow,Light Snow,50,2013-04-09 19:56:00
2:16 PM,19.9,14.5,80,30.05,5.0,NE,19.6,25.3,N/A,Snow,Light Snow,40,2013-04-09 20:16:00
2:36 PM,19.9,12.6,73,30.06,5.0,NE,20.7,25.3,N/A,Snow,Light Snow,40,2013-04-09 20:36:00
2:56 PM,19.4,14.5,81,30.06,7.0,NE,15.0,-,N/A,,Overcast,40,2013-04-09 20:56:00
3:16 PM,18.9,13.8,81,30.07,7.0,NE,17.3,24.2,N/A,Snow,Light Snow,40,2013-04-09 21:16:00
3:36 PM,19.2,12.9,76,30.07,10.0,NE,13.8,20.7,N/A,,Overcast,40,2013-04-09 21:36:00
3:56 PM,19.2,13.5,78,30.08,10.0,NNE,13.8,20.7,N/A,,Overcast,30,2013-04-09 21:56:00
4:16 PM,18.9,12.2,75,30.09,10.0,NE,16.1,19.6,N/A,,Overcast,50,2013-04-09 22:16:00
4:36 PM,18.7,12.2,76,30.08,7.0,NE,15.0,21.9,N/A,Snow,Light Snow,40,2013-04-09 22:36:00
4:56 PM,18.5,12.0,76,30.08,5.0,NNE,13.8,23.0,N/A,Snow,Light Snow,20,2013-04-09 22:56:00
5:16 PM,18.9,13.1,78,30.10,4.0,NNE,16.1,19.6,N/A,Snow,Light Snow,30,2013-04-09 23:16:00
5:36 PM,18.0,11.7,76,30.11,5.0,NNE,10.4,-,N/A,Snow,Light Snow,30,2013-04-09 23:36:00
5:56 PM,18.3,13.6,82,30.12,4.0,NNE,13.8,18.4,N/A,Snow,Light Snow,30,2013-04-09 23:56:00
6:16 PM,18.1,12.2,78,30.13,4.0,NNE,11.5,-,N/A,Snow,Light Snow,20,2013-04-10 00:16:00
6:36 PM,17.6,13.8,85,30.13,1.5,NE,8.1,-,N/A,Snow,Light Snow,40,2013-04-10 00:36:00
6:56 PM,17.1,13.1,84,30.14,3.0,NE,10.4,-,N/A,Snow,Light Snow,40,2013-04-10 00:56:00
7:16 PM,16.7,11.7,81,30.14,7.0,NE,10.4,-,N/A,Snow,Light Snow,40,2013-04-10 01:16:00
7:36 PM,16.3,12.6,85,30.15,4.0,NE,8.1,-,N/A,Snow,Light Snow,50,2013-04-10 01:36:00
7:56 PM,16.3,11.8,82,30.16,10.0,NE,6.9,-,N/A,Snow,Light Snow,40,2013-04-10 01:56:00
8:16 PM,15.8,11.7,84,30.16,10.0,NE,5.8,-,N/A,,Overcast,50,2013-04-10 02:16:00
8:56 PM,15.6,12.7,88,30.18,3.0,ENE,4.6,-,N/A,Snow,Light Snow,70,2013-04-10 02:56:00
9:16 PM,15.4,12.4,88,30.18,5.0,NE,4.6,-,N/A,Snow,Light Snow,50,2013-04-10 03:16:00
9:36 PM,15.3,12.7,90,30.18,2.5,ENE,3.5,-,N/A,Snow,Light Snow,70,2013-04-10 03:36:00
9:56 PM,14.5,11.8,89,30.18,3.0,NE,8.1,-,N/A,Snow,Light Snow,40,2013-04-10 03:56:00
10:16 PM,14.0,11.3,89,30.18,4.0,NE,5.8,-,N/A,Snow,Light Snow,40,2013-04-10 04:16:00
10:36 PM,14.0,11.3,89,30.18,2.5,ENE,5.8,-,N/A,Snow,Light Snow,60,2013-04-10 04:36:00
10:56 PM,13.6,11.1,90,30.17,1.8,ENE,4.6,-,N/A,Snow,Light Snow,60,2013-04-10 04:56:00
11:16 PM,13.5,10.9,90,30.16,2.0,NE,3.5,-,N/A,Snow,Light Snow,50,2013-04-10 05:16:00
11:36 PM,13.1,10.8,90,30.16,2.0,NE,4.6,-,N/A,Snow,Light Snow,40,2013-04-10 05:36:00
11:56 PM,12.9,10.0,88,30.15,3.0,ENE,4.6,-,N/A,Snow,Light Snow,60,2013-04-10 05:56:00